Temp
61 62 62 60 60 60 60 61 60 60 60 60 60 60 58 57 53 52 52 55 56 65 70 64 68 73 72 69 72 71 73 66 66 70 69 68 69 66 58 55 53 54 52 50 49 49 49 50 50 53 55 56 58 58 57 56 56 57 57 57 57 58 58 58 59 63 66 69 67 64 62 61 61 59
62 61 61 61 60 60 60 60 59 59 58 58 60 59 60 60 55 54 51 52 58 60 65 68 67 71 71 72 68 70 70 67 72 71 71 69 68 62 57 55 53 54 53 51 51 49 49 50 51 53 54 54 55 55 55 54 54 54 55 56 57 57 59 58 59 61 62 64 64 62 61 61 60 59
62 62 62 60 60 60 59 59 60 60 60 58 60 59 60 59 59 56 55 51 56 62 60 63 69 68 70 71 68 69 69 69 70 69 67 71 68 61 59 55 55 53 53 52 52 51 50 49 50 51 53 54 54 54 55 54 54 54 54 54 56 59 60 60 59 61 62 62 62 62 60 60 60 60
63 61 62 61 60 60 60 60 60 60 59 60 60 59 59 59 59 58 55 52 53 59 60 61 65 69 66 69 68 67 70 72 65 69 68 69 65 64 67 55 55 56 54 54 53 54 51 50 49 49 50 51 52 52 53 53 54 54 53 54 55 57 59 60 59 62 62 62 61 61 60 60 60 59
64 63 63 61 61 63 59 59 60 61 62 60 60 60 60 58 59 57 55 53 54 57 60 60 63 66 66 66 68 67 65 65 66 67 68 68 67 69 68 70 58 55 55 54 54 53 52 51 50 49 49 50 50 51 52 53 54 53 51 52 52 54 58 60 60 60 62 61 61 60 59 59 59 59
64 62 61 63 61 62 62 61 64 64 63 64 62 61 60 60 59 60 58 54 53 53 57 57 61 62 65 63 67 63 62 62 63 67 69 70 71 71 70 68 70 61 54 54 54 53 53 51 50 49 49 49 49 50 50 49 49 51 51 50 50 54 56 59 59 59 60 60 60 59 59 59 59 59
63 61 60 61 61 62 60 60 60 60 62 63 64 60 61 60 59 60 60 56 54 54 55 57 59 60 61 60 63 66 66 65 67 67 67 69 71 72 70 70 72 63 61 55 52 53 52 51 50 49 49 49 48 49 49 49 49 48 48 49 49 50 51 52 55 57 57 59 59 59 58 58 59 60
62 61 60 61 61 60 58 59 60 60 61 60 60 60 60 59 59 58 59 58 56 55 54 55 59 60 58 60 65 68 68 65 64 66 67 69 70 70 72 73 73 69 61 60 58 54 53 52 51 49 49 49 49 48 48 49 48 48 48 48 48 48 49 49 50 52 55 58 58 58 57 58 60 61
62 61 60 62 61 60 59 59 59 60 59 62 59 58 59 59 59 59 58 57 58 55 54 55 58 59 61 63 63 65 64 64 65 66 65 66 67 65 67 69 73 64 61 56 53 52 51 51 50 49 49 49 49 48 48 48 49 49 49 49 48 48 48 48 49 50 51 52 54 58 57 58 61 62
62 62 61 61 62 61 58 58 59 58 59 59 58 58 59 59 58 56 56 57 56 56 55 55 55 56 57 58 58 63 63 62 62 62 64 64 64 63 62 66 70 71 73 66 62 53 52 52 52 53 52 50 49 48 49 48 49 49 49 48 48 48 48 48 48 48 48 50 50 52 57 58 60 62
61 61 62 61 61 61 60 59 59 58 57 57 56 56 55 58 56 55 55 56 56 55 55 56 56 56 58 57 54 61 64 64 63 59 58 58 64 63 62 61 65 66 67 64 58 59 58 58 58 54 51 50 50 50 49 49 49 49 48 48 47 47 47 47 48 48 48 49 49 49 50 54 58 61
61 60 61 61 61 60 59 56 54 54 52 53 52 53 54 54 53 52 52 53 53 53 54 53 52 53 54 54 58 63 62 59 58 62 58 55 56 59 62 63 63 65 66 66 67 60 57 56 56 54 53 52 51 51 50 50 50 49 48 47 46 46 46 47 47 48 48 48 48 48 49 49 52 58
61 61 60 61 60 56 54 52 52 51 52 52 51 51 51 51 51 50 51 51 50 51 52 52 54 52 52 53 54 53 53 53 53 55 58 57 59 60 60 63 66 66 65 65 66 68 64 62 63 64 62 61 55 53 51 52 50 49 47 46 46 46 47 47 47 47 47 48 48 48 48 48 48 49
59 60 59 58 55 53 52 49 47 46 47 49 51 51 50 49 49 48 48 47 48 49 48 49 50 50 50 51 53 53 54 56 57 55 55 54 54 55 57 59 62 65 65 62 63 67 69 68 64 64 64 64 61 60 55 55 55 51 47 47 47 46 46 46 47 47 47 47 47 47 47 47 48 47
58 57 60 56 54 53 52 51 47 47 45 44 45 46 47 49 49 48 46 46 47 47 48 49 49 48 48 51 53 53 55 55 54 53 54 54 54 52 50 50 55 62 61 58 58 60 64 65 64 65 63 63 60 62 60 53 51 50 46 46 46 46 46 46 46 46 46 46 46 47 47 47 47 47
58 58 58 57 57 56 55 55 51 48 45 44 43 43 43 43 43 44 48 47 46 46 46 47 47 48 48 49 51 51 52 51 51 52 52 52 52 51 51 51 51 56 59 57 56 56 62 64 63 62 63 64 59 59 56 52 51 50 47 45 45 45 45 45 45 45 45 45 45 45 45 46 46 46
56 54 55 58 57 60 57 57 55 53 50 45 44 44 43 43 42 41 41 43 48 49 47 47 47 47 48 48 49 50 50 51 49 49 49 49 48 48 48 49 51 54 58 56 53 53 57 60 59 58 61 63 59 49 46 46 47 46 45 44 44 44 44 44 44 44 44 44 44 44 45 45 45 45
53 52 53 56 57 56 55 55 55 55 53 51 48 46 46 47 47 43 42 41 41 43 46 47 47 49 49 48 49 51 50 48 46 45 45 47 46 47 47 50 51 55 59 54 53 52 54 58 59 58 60 62 60 54 49 44 45 45 44 44 43 43 43 43 43 43 43 43 43 43 44 44 44 44
55 55 57 57 56 57 57 56 55 54 54 53 51 49 49 49 49 49 49 48 47 46 46 46 48 49 51 51 52 51 49 47 48 47 47 47 47 48 50 51 52 54 57 56 52 49 52 55 56 57 57 59 60 52 46 44 45 45 44 43 42 43 43 43 43 42 43 42 43 43 42 42 43 43
56 57 56 55 54 55 55 50 49 51 53 52 51 49 48 48 48 49 50 48 49 50 50 49 49 50 51 49 48 48 48 47 47 49 49 48 47 46 45 45 49 50 55 56 53 50 50 51 55 56 57 57 57 53 47 43 45 44 43 43 43 43 43 43 43 43 42 42 42 43 42 42 42 42
56 56 56 56 56 55 54 44 43 46 49 50 49 48 47 48 48 48 51 48 46 44 43 43 43 43 43 44 45 46 46 46 46 45 44 44 46 44 42 44 46 48 52 53 53 50 49 50 52 54 55 56 54 56 48 45 42 43 43 43 43 42 42 42 42 42 42 42 42 42 42 42 42 42
55 56 56 56 55 55 52 40 41 41 47 48 47 47 46 46 46 47 49 51 51 48 47 45 44 42 41 41 42 42 43 44 45 44 42 45 44 43 43 42 45 48 50 49 52 49 47 51 52 51 54 53 54 55 51 47 42 42 40 41 42 42 42 42 42 42 42 43 43 43 42 42 42 44
55 53 55 51 48 45 39 38 38 39 43 46 46 45 44 44 44 46 47 47 46 45 45 45 46 46 47 48 47 48 45 43 44 45 45 45 43 42 42 43 44 43 47 50 53 49 49 50 50 49 49 48 52 54 50 48 48 47 44 44 43 42 42 42 42 42 42 42 42 43 42 41 42 44
54 55 48 40 39 39 38 37 38 38 40 42 43 43 42 42 42 45 43 44 44 44 44 44 45 45 46 46 47 47 48 48 49 47 47 46 46 44 43 44 44 42 44 48 51 46 46 47 46 48 46 43 40 49 51 49 50 50 48 46 42 43 45 43 42 42 41 41 42 42 41 42 43 44
53 54 47 44 39 39 39 38 38 40 39 40 41 41 41 43 43 41 42 43 43 42 43 43 43 44 44 44 45 45 46 46 47 46 46 46 47 47 45 44 44 44 47 50 49 48 44 45 45 47 47 46 46 48 47 46 46 46 48 49 48 46 44 43 42 42 42 42 41 41 41 42 43 43
52 53 49 44 39 37 39 39 40 40 39 37 40 41 40 40 39 41 42 42 42 42 42 41 41 42 42 42 43 44 44 45 46 46 45 46 47 49 49 47 45 43 45 49 46 47 44 43 43 44 45 43 45 44 44 45 46 45 46 48 48 46 44 42 42 42 43 43 42 41 41 41 41 41
50 51 48 42 39 38 38 38 39 39 38 38 39 39 38 38 38 38 39 40 41 40 41 41 41 41 41 42 42 43 43 45 45 46 47 48 49 48 49 50 50 48 49 50 51 49 47 44 45 44 42 43 41 42 42 42 44 45 43 45 46 45 44 41 40 42 42 41 41 41 40 39 39 39
50 49 47 43 39 40 40 41 41 40 39 39 39 38 38 38 38 38 40 40 41 40 40 40 40 41 42 42 42 43 45 45 46 47 47 48 48 48 49 50 49 50 50 50 51 51 50 47 47 47 46 43 41 39 39 43 44 43 41 43 44 44 44 42 41 41 41 41 41 41 40 40 40 40
48 41 38 39 39 40 40 39 39 39 39 39 38 38 37 39 39 40 40 41 42 41 39 40 41 42 42 43 43 45 45 45 46 45 46 46 47 48 48 48 48 48 49 49 50 51 50 48 47 48 48 46 43 43 43 43 43 42 42 41 40 42 42 42 41 40 40 40 40 40 40 40 40 40
39 40 39 39 39 40 40 41 41 41 44 41 39 38 39 40 40 41 42 42 41 41 41 40 40 41 42 43 44 44 44 43 43 43 44 44 44 46 45 45 46 48 49 49 50 50 50 49 48 48 47 46 46 45 45 44 44 44 42 41 40 40 41 41 40 40 39 39 40 40 40 41 41 40
45 45 44 44 41 41 41 40 39 39 40 40 42 42 43 44 44 43 43 43 43 42 41 40 41 42 44 45 43 41 41 41 42 43 42 42 42 43 44 43 42 44 46 48 49 50 50 49 48 48 45 45 46 46 46 46 43 43 42 41 39 35 38 40 40 39 40 40 40 40 40 40 40 41
44 44 42 43 44 45 45 44 43 43 43 43 41 43 43 43 43 43 42 42 43 43 43 43 43 41 42 41 42 42 42 41 41 43 41 41 41 41 42 40 39 41 43 45 46 47 45 48 47 48 47 46 44 45 46 45 43 42 42 40 39 40 40 39 39 39 40 39 37 38 39 39 40 41
41 42 43 41 43 42 39 38 40 40 39 39 42 43 43 43 43 43 42 42 42 42 41 40 39 38 39 40 40 40 40 40 41 42 41 41 40 41 41 39 39 39 39 39 42 44 46 47 46 47 47 47 47 45 42 40 41 42 40 39 39 38 38 39 38 38 40 38 36 37 37 39 40 41
36 36 37 39 40 39 38 37 38 38 38 39 39 39 38 38 40 40 40 41 40 40 38 38 38 37 37 36 38 38 38 39 40 41 39 40 40 38 37 36 37 39 38 39 40 42 43 44 45 45 45 43 46 47 45 41 40 41 40 40 39 37 38 38 38 38 38 37 36 35 35 36 39 40
36 38 39 39 38 37 37 38 38 38 38 38 38 37 37 38 38 38 38 39 38 37 37 37 37 36 36 36 36 35 36 36 38 39 39 39 40 38 37 36 37 37 38 38 39 40 41 40 41 39 39 40 41 43 46 46 42 41 41 40 39 38 37 38 37 37 38 36 37 35 35 35 37 40
35 38 38 37 37 37 38 38 38 38 38 38 37 37 37 37 37 37 37 38 38 36 36 36 36 36 36 35 36 36 35 35 36 36 36 36 36 37 38 37 37 38 39 38 39 40 40 40 39 37 35 35 35 35 37 44 45 43 40 37 39 38 38 37 37 37 37 36 36 36 34 34 35 38
37 38 37 37 38 39 37 38 37 38 38 38 37 37 37 36 37 38 38 38 37 36 36 36 36 36 36 35 35 35 35 35 35 35 35 36 36 36 35 36 36 37 37 38 39 40 40 38 38 37 36 35 34 33 36 38 40 44 44 39 38 38 37 37 36 35 36 37 36 36 35 35 35 37
37 39 39 39 40 40 39 38 38 37 37 37 37 36 37 37 38 38 39 38 36 36 36 36 35 36 35 35 35 35 35 35 35 35 35 35 35 35 35 35 36 36 37 38 39 39 40 38 37 37 37 35 33 34 35 37 37 38 43 42 38 37 37 36 35 34 35 36 36 36 36 35 35 36
41 38 38 38 39 40 38 38 38 37 38 37 36 36 36 36 37 36 36 36 36 36 36 35 35 35 35 35 35 34 34 34 34 34 35 35 35 35 35 36 35 36 36 36 38 39 39 38 38 38 38 36 35 36 37 36 36 37 39 42 40 37 37 37 35 35 36 35 34 34 34 35 35 36
39 39 39 40 40 40 39 39 37 37 36 36 36 36 36 35 35 35 35 35 36 36 35 35 35 35 35 35 34 34 34 34 33 34 34 34 35 35 35 35 35 36 36 36 36 37 37 38 38 39 38 39 39 39 36 36 37 36 37 39 41 40 39 37 36 35 34 35 34 33 32 34 33 34
37 38 39 40 40 40 38 39 39 37 36 37 37 36 36 35 35 35 35 35 35 35 34 34 34 34 34 34 34 33 33 33 34 34 34 34 34 35 34 34 35 36 35 35 35 36 37 39 40 37 39 40 38 37 36 36 35 35 35 36 39 40 40 40 38 37 35 35 35 34 33 32 32 33
38 38 39 40 39 39 39 39 38 37 36 36 35 35 35 34 35 35 35 35 34 34 34 34 34 34 34 34 34 33 33 33 33 34 34 34 34 34 34 34 34 35 35 34 35 37 38 40 39 39 39 37 36 36 35 35 34 33 34 35 35 38 39 39 40 39 38 36 35 33 32 32 33 32
38 38 38 38 39 38 38 37 37 36 36 35 34 34 34 34 34 34 34 34 34 34 34 34 34 34 34 34 34 34 33 33 33 33 34 34 33 33 34 34 35 35 36 36 37 37 38 38 39 38 37 37 37 37 35 35 34 34 33 34 34 35 36 38 38 38 38 38 38 37 36 35 33 30
38 39 38 38 37 37 37 37 36 35 35 34 34 34 34 33 33 33 34 34 34 33 34 33 34 34 33 34 34 34 34 34 34 34 34 34 34 34 34 35 35 35 36 36 36 37 38 38 38 38 36 36 37 36 35 35 33 34 33 33 33 33 33 34 35 36 36 36 37 37 37 36 36 37
38 38 38 37 37 37 36 36 36 35 34 34 34 34 34 33 33 33 33 34 33 33 33 33 33 33 33 33 33 33 34 35 35 34 35 35 35 35 35 35 35 35 35 36 36 36 37 37 36 37 37 37 37 36 35 35 34 33 33 33 32 33 33 33 33 33 33 33 35 36 36 36 36 36
MSLP
1019.40 1019.48 1019.44 1019.48 1019.56 1019.68 1019.68 1019.68 1019.72 1019.76 1019.68 1019.64 1019.52 1019.48 1019.68 1019.76 1020.04 1020.00 1019.84 1019.32 1019.08 1017.96 1017.36 1017.60 1016.88 1016.72 1016.88 1017.04 1016.84 1016.76 1016.72 1016.68 1016.64 1016.52 1016.40 1016.28 1016.20 1016.12 1016.28 1016.48 1016.60 1016.68 1016.76 1016.88 1016.96 1017.00 1017.08 1017.16 1017.24 1017.32 1017.40 1017.44 1017.40 1017.36 1017.48 1017.68 1017.84 1018.04 1018.16 1018.40 1018.64 1018.84 1019.00 1019.24 1019.40 1019.40 1019.44 1019.64 1019.96 1020.40 1020.76 1021.04 1021.24 1021.40
1019.40 1019.48 1019.52 1019.52 1019.64 1019.72 1019.76 1019.80 1019.84 1019.80 1019.80 1019.68 1019.56 1019.44 1019.32 1019.32 1019.80 1019.96 1020.28 1019.88 1019.08 1018.68 1018.00 1017.72 1017.64 1016.96 1016.96 1016.84 1016.88 1016.84 1016.92 1016.80 1016.68 1016.52 1016.36 1016.24 1016.16 1016.16 1016.20 1016.32 1016.40 1016.48 1016.52 1016.60 1016.68 1016.76 1016.80 1016.88 1016.96 1017.00 1017.12 1017.20 1017.28 1017.32 1017.32 1017.36 1017.52 1017.68 1017.92 1018.12 1018.28 1018.52 1018.68 1018.92 1019.08 1019.12 1019.40 1019.36 1019.52 1019.80 1020.24 1020.52 1020.80 1021.08
1019.44 1019.64 1019.72 1019.64 1019.64 1019.68 1019.72 1019.76 1019.72 1019.72 1019.72 1019.68 1019.60 1019.48 1019.40 1019.36 1019.40 1019.64 1019.84 1020.20 1019.04 1018.72 1018.72 1018.08 1017.68 1017.56 1017.16 1016.96 1016.92 1016.88 1016.80 1016.68 1016.64 1016.56 1016.48 1016.32 1016.20 1016.20 1016.20 1016.20 1016.28 1016.36 1016.40 1016.36 1016.36 1016.36 1016.40 1016.52 1016.60 1016.72 1016.80 1016.88 1017.00 1017.08 1017.16 1017.24 1017.32 1017.44 1017.56 1017.80 1017.96 1018.16 1018.36 1018.60 1018.72 1018.72 1018.84 1019.12 1019.28 1019.32 1019.56 1020.00 1020.32 1020.68
1019.44 1019.64 1019.72 1019.72 1019.76 1019.72 1019.76 1019.68 1019.60 1019.64 1019.60 1019.68 1019.68 1019.60 1019.56 1019.44 1019.36 1019.44 1019.72 1019.88 1019.68 1018.88 1018.80 1018.56 1018.12 1017.72 1017.56 1017.32 1017.28 1017.08 1016.92 1016.72 1016.68 1016.64 1016.56 1016.44 1016.36 1016.44 1016.24 1016.12 1016.00 1015.96 1015.96 1015.92 1015.92 1015.96 1016.16 1016.32 1016.40 1016.48 1016.56 1016.68 1016.76 1016.84 1016.88 1017.00 1017.12 1017.24 1017.40 1017.56 1017.72 1017.88 1018.04 1018.24 1018.40 1018.48 1018.48 1018.40 1018.88 1019.16 1019.24 1019.44 1019.80 1020.16
1019.36 1019.48 1019.52 1019.68 1019.72 1019.76 1019.84 1019.72 1019.56 1019.52 1019.44 1019.48 1019.52 1019.48 1019.48 1019.52 1019.44 1019.56 1019.68 1019.80 1019.60 1019.12 1018.72 1018.72 1018.52 1018.12 1017.88 1017.68 1017.40 1017.32 1017.12 1017.00 1016.84 1016.72 1016.68 1016.56 1016.52 1016.32 1016.20 1016.00 1015.96 1015.92 1015.88 1015.88 1015.84 1015.88 1015.92 1016.00 1016.12 1016.20 1016.32 1016.44 1016.56 1016.60 1016.68 1016.72 1016.84 1017.00 1017.12 1017.24 1017.36 1017.52 1017.72 1017.88 1017.84 1017.96 1018.04 1018.24 1018.28 1018.48 1018.92 1019.24 1019.40 1019.56
1019.32 1019.40 1019.52 1019.44 1019.60 1019.64 1019.72 1019.68 1019.64 1019.40 1019.40 1019.32 1019.32 1019.40 1019.52 1019.52 1019.48 1019.36 1019.60 1019.68 1019.72 1019.56 1019.12 1018.96 1018.64 1018.48 1018.12 1018.08 1017.52 1017.48 1017.36 1017.20 1017.04 1016.92 1016.76 1016.60 1016.48 1016.36 1016.16 1016.04 1015.84 1015.68 1015.68 1015.64 1015.60 1015.60 1015.64 1015.80 1015.92 1015.96 1016.04 1016.12 1016.24 1016.32 1016.44 1016.56 1016.64 1016.76 1016.88 1017.00 1017.12 1017.20 1017.32 1017.44 1017.64 1017.84 1017.88 1018.16 1018.48 1018.72 1018.72 1018.72 1018.68 1018.96
1019.20 1019.40 1019.52 1019.48 1019.44 1019.56 1019.76 1019.72 1019.64 1019.52 1019.44 1019.32 1019.32 1019.32 1019.28 1019.44 1019.48 1019.44 1019.44 1019.64 1019.80 1019.64 1019.32 1018.96 1018.80 1018.48 1018.16 1018.04 1017.80 1017.56 1017.40 1017.24 1017.12 1017.04 1016.88 1016.72 1016.48 1016.28 1016.12 1015.96 1015.68 1015.44 1015.36 1015.40 1015.44 1015.40 1015.44 1015.56 1015.60 1015.64 1015.72 1015.88 1015.96 1016.08 1016.16 1016.28 1016.36 1016.44 1016.56 1016.68 1016.80 1016.92 1017.04 1017.16 1017.24 1017.40 1017.56 1017.84 1018.00 1018.08 1018.24 1018.56 1018.88 1019.20
1018.96 1019.20 1019.28 1019.28 1019.32 1019.44 1019.64 1019.64 1019.56 1019.44 1019.40 1019.40 1019.36 1019.36 1019.32 1019.32 1019.36 1019.28 1019.24 1019.28 1019.44 1019.36 1019.28 1018.84 1018.68 1018.28 1018.24 1018.00 1017.72 1017.52 1017.28 1017.16 1017.08 1016.96 1016.72 1016.52 1016.40 1016.16 1015.92 1015.68 1015.48 1015.16 1015.12 1015.00 1015.00 1015.04 1015.04 1015.04 1015.12 1015.28 1015.44 1015.64 1015.76 1015.84 1015.88 1015.96 1016.04 1016.12 1016.24 1016.40 1016.52 1016.64 1016.72 1016.84 1016.96 1017.08 1017.16 1017.28 1017.52 1017.92 1018.04 1018.12 1018.24 1018.56
1018.64 1018.84 1019.00 1019.04 1019.08 1019.28 1019.48 1019.48 1019.52 1019.44 1019.48 1019.44 1019.48 1019.52 1019.44 1019.40 1019.36 1019.40 1019.40 1019.40 1019.36 1019.36 1019.28 1018.96 1018.60 1018.32 1018.12 1017.80 1017.60 1017.40 1017.36 1017.12 1016.92 1016.72 1016.64 1016.48 1016.32 1016.12 1015.84 1015.60 1015.28 1015.04 1014.88 1014.84 1014.80 1014.80 1014.88 1015.00 1015.12 1015.16 1015.24 1015.36 1015.44 1015.48 1015.52 1015.56 1015.64 1015.76 1015.88 1016.08 1016.24 1016.40 1016.56 1016.68 1016.76 1016.80 1016.84 1016.92 1017.08 1017.32 1017.60 1017.72 1017.72 1017.96
1018.56 1018.76 1018.88 1018.96 1019.04 1019.20 1019.40 1019.48 1019.40 1019.44 1019.56 1019.64 1019.72 1019.72 1019.68 1019.64 1019.56 1019.52 1019.44 1019.40 1019.36 1019.28 1019.16 1019.00 1018.68 1018.36 1018.20 1017.96 1017.72 1017.40 1017.24 1017.20 1017.08 1016.88 1016.60 1016.36 1016.20 1016.12 1015.96 1015.60 1015.24 1014.96 1014.68 1014.56 1014.52 1014.60 1014.56 1014.48 1014.40 1014.48 1014.64 1014.84 1015.00 1015.16 1015.16 1015.20 1015.28 1015.36 1015.48 1015.64 1015.88 1016.12 1016.28 1016.36 1016.48 1016.56 1016.64 1016.72 1016.84 1017.00 1017.12 1017.24 1017.44 1017.60
1018.60 1018.76 1018.88 1018.96 1019.04 1019.20 1019.32 1019.44 1019.48 1019.56 1019.68 1019.84 1019.92 1019.92 1019.92 1019.84 1019.80 1019.76 1019.68 1019.60 1019.44 1019.36 1019.20 1018.96 1018.72 1018.48 1018.08 1017.88 1017.80 1017.36 1017.08 1016.92 1016.84 1016.84 1016.72 1016.56 1016.08 1015.88 1015.80 1015.68 1015.28 1014.92 1014.68 1014.44 1014.28 1014.16 1014.08 1014.00 1014.00 1014.04 1014.16 1014.32 1014.48 1014.60 1014.72 1014.76 1014.88 1014.92 1015.00 1015.20 1015.48 1015.72 1015.88 1016.00 1016.16 1016.32 1016.44 1016.52 1016.60 1016.68 1016.88 1016.96 1017.08 1017.20
1018.68 1018.76 1018.84 1019.00 1019.12 1019.24 1019.40 1019.56 1019.76 1019.84 1020.12 1020.24 1020.28 1020.24 1020.20 1020.16 1020.12 1020.08 1019.96 1019.84 1019.72 1019.52 1019.32 1019.08 1018.80 1018.44 1018.16 1017.84 1017.52 1017.24 1017.08 1017.08 1016.92 1016.68 1016.60 1016.68 1016.48 1016.16 1015.76 1015.52 1015.40 1015.00 1014.76 1014.44 1014.08 1013.92 1013.88 1013.84 1013.76 1013.72 1013.80 1014.00 1014.04 1014.08 1014.24 1014.48 1014.60 1014.68 1014.76 1014.88 1015.12 1015.32 1015.56 1015.76 1015.92 1016.04 1016.16 1016.24 1016.32 1016.40 1016.56 1016.76 1016.80 1016.80
1018.80 1018.92 1018.96 1019.00 1019.20 1019.52 1019.76 1019.92 1020.04 1020.12 1020.20 1020.44 1020.56 1020.52 1020.56 1020.56 1020.56 1020.48 1020.44 1020.36 1020.24 1019.96 1019.72 1019.36 1018.96 1018.68 1018.36 1018.04 1017.80 1017.52 1017.32 1017.24 1017.12 1016.80 1016.64 1016.52 1016.36 1016.16 1016.00 1015.60 1015.20 1014.88 1014.72 1014.44 1014.20 1013.84 1013.52 1013.60 1013.56 1013.64 1013.80 1013.76 1013.76 1013.88 1014.00 1014.08 1014.24 1014.36 1014.56 1014.72 1014.84 1015.04 1015.28 1015.44 1015.64 1015.80 1015.92 1016.04 1016.16 1016.20 1016.32 1016.48 1016.60 1016.64
1018.68 1018.88 1019.00 1019.16 1019.32 1019.52 1019.68 1019.88 1020.04 1020.16 1020.32 1020.48 1020.60 1020.68 1020.80 1020.88 1020.88 1020.88 1020.88 1020.88 1020.76 1020.56 1020.32 1019.92 1019.56 1019.28 1018.88 1018.44 1018.16 1017.92 1017.56 1017.28 1016.96 1016.84 1016.76 1016.72 1016.36 1016.16 1015.96 1015.64 1015.24 1014.72 1014.48 1014.40 1014.24 1013.84 1013.36 1013.16 1013.12 1013.28 1013.48 1013.32 1013.36 1013.36 1013.60 1013.76 1013.64 1013.72 1014.00 1014.28 1014.56 1014.72 1014.88 1015.08 1015.28 1015.44 1015.56 1015.72 1015.84 1016.00 1016.12 1016.20 1016.28 1016.36
1018.68 1018.80 1018.84 1019.16 1019.32 1019.40 1019.52 1019.72 1019.88 1020.16 1020.28 1020.28 1020.44 1020.56 1020.72 1020.80 1020.88 1020.96 1021.04 1021.04 1020.92 1020.84 1020.64 1020.28 1019.96 1019.56 1019.24 1018.84 1018.48 1018.28 1017.96 1017.72 1017.76 1017.64 1017.36 1017.04 1016.68 1016.48 1016.36 1016.16 1015.48 1014.80 1014.92 1015.04 1014.84 1014.36 1013.68 1013.40 1013.36 1013.12 1013.12 1013.12 1013.16 1013.20 1013.28 1013.28 1013.48 1013.64 1013.92 1014.16 1014.32 1014.52 1014.72 1014.92 1015.04 1015.12 1015.24 1015.36 1015.52 1015.68 1015.80 1015.88 1015.96 1016.04
1018.76 1018.76 1018.80 1018.96 1019.20 1019.28 1019.48 1019.64 1019.92 1020.24 1020.24 1020.12 1020.24 1020.40 1020.48 1020.60 1020.72 1020.80 1020.84 1020.88 1020.96 1020.84 1020.72 1020.52 1020.24 1020.00 1019.68 1019.36 1019.12 1018.80 1018.48 1018.52 1018.44 1018.08 1017.84 1017.52 1017.28 1017.08 1016.76 1016.28 1016.00 1015.44 1015.36 1015.44 1015.20 1014.68 1014.00 1013.68 1013.48 1013.24 1012.96 1012.80 1012.96 1013.00 1012.96 1013.12 1013.28 1013.44 1013.56 1013.68 1013.92 1014.20 1014.48 1014.68 1014.80 1014.88 1014.96 1015.00 1015.12 1015.32 1015.52 1015.64 1015.68 1015.72
1018.80 1018.92 1018.92 1018.84 1019.04 1018.96 1019.12 1019.40 1019.64 1020.08 1020.24 1020.12 1020.04 1020.20 1020.48 1020.60 1020.64 1020.68 1020.72 1020.72 1020.68 1020.64 1020.64 1020.52 1020.32 1020.20 1019.88 1019.64 1019.32 1019.04 1018.92 1018.80 1018.72 1018.52 1018.36 1018.28 1018.36 1018.20 1018.00 1017.48 1017.04 1016.40 1016.04 1015.76 1015.52 1015.24 1014.64 1014.36 1014.12 1013.92 1013.40 1013.00 1012.88 1013.12 1013.20 1013.16 1013.28 1013.40 1013.52 1013.68 1013.84 1014.04 1014.20 1014.36 1014.56 1014.68 1014.80 1014.88 1014.96 1015.04 1015.20 1015.36 1015.44 1015.44
1018.72 1018.88 1019.08 1019.00 1018.76 1018.68 1019.00 1019.20 1019.40 1019.60 1019.72 1019.88 1020.16 1020.52 1020.72 1020.72 1020.60 1020.60 1020.60 1020.56 1020.64 1020.72 1020.68 1020.44 1020.24 1019.88 1019.88 1019.76 1019.44 1019.16 1019.00 1019.04 1019.28 1019.20 1019.00 1018.84 1018.68 1018.56 1018.28 1017.76 1017.32 1016.64 1016.32 1016.08 1015.68 1015.16 1014.76 1014.68 1014.40 1014.00 1013.48 1013.20 1013.00 1013.16 1013.20 1013.36 1013.48 1013.64 1013.80 1013.92 1014.08 1014.28 1014.40 1014.44 1014.48 1014.48 1014.52 1014.64 1014.72 1014.84 1014.92 1015.04 1015.16 1015.20
1018.72 1018.96 1018.92 1018.72 1018.64 1018.60 1018.72 1018.92 1019.16 1019.32 1019.44 1019.48 1019.68 1019.88 1020.04 1020.12 1020.04 1020.00 1020.12 1020.32 1020.40 1020.40 1020.44 1020.44 1020.20 1019.96 1019.76 1019.52 1019.28 1019.12 1019.08 1019.20 1019.20 1019.16 1019.12 1019.00 1018.80 1018.48 1018.00 1017.48 1017.00 1016.52 1016.24 1015.88 1015.68 1015.48 1014.96 1014.76 1014.52 1014.00 1013.68 1013.40 1013.16 1013.28 1013.60 1013.72 1013.68 1013.76 1013.92 1014.16 1014.36 1014.44 1014.48 1014.48 1014.44 1014.36 1014.24 1014.28 1014.40 1014.52 1014.64 1014.76 1014.84 1014.92
1018.64 1018.68 1018.80 1018.72 1018.60 1018.60 1018.68 1018.96 1019.16 1019.24 1019.32 1019.48 1019.60 1019.72 1019.80 1019.80 1019.80 1019.84 1019.84 1019.80 1019.68 1019.68 1019.68 1019.68 1019.64 1019.52 1019.40 1019.24 1019.16 1019.16 1019.12 1019.12 1019.04 1018.88 1018.72 1018.72 1018.64 1018.44 1018.12 1017.76 1017.20 1016.88 1016.24 1016.00 1015.64 1015.28 1014.92 1014.76 1014.60 1014.08 1013.72 1013.44 1013.28 1013.40 1013.72 1013.84 1014.00 1014.20 1014.36 1014.48 1014.44 1014.40 1014.32 1014.24 1014.20 1014.24 1014.20 1014.16 1014.16 1014.28 1014.36 1014.44 1014.56 1014.68
1018.60 1018.84 1018.92 1018.80 1018.52 1018.52 1018.68 1019.08 1019.16 1019.24 1019.40 1019.56 1019.60 1019.64 1019.68 1019.72 1019.72 1019.68 1019.64 1019.52 1019.40 1019.36 1019.36 1019.28 1019.24 1019.20 1019.12 1018.96 1018.76 1018.60 1018.56 1018.68 1018.80 1018.80 1018.76 1018.68 1018.72 1018.52 1018.24 1017.64 1017.40 1016.80 1016.52 1015.96 1015.68 1015.48 1015.20 1014.68 1014.52 1014.20 1013.84 1013.44 1013.28 1013.08 1013.56 1013.88 1014.20 1014.44 1014.60 1014.64 1014.52 1014.40 1014.28 1014.16 1014.12 1014.08 1014.08 1014.00 1013.96 1013.96 1014.08 1014.12 1014.20 1014.40
1018.52 1018.80 1018.80 1018.80 1018.56 1018.48 1018.84 1019.24 1019.36 1019.56 1019.64 1019.56 1019.48 1019.52 1019.60 1019.60 1019.60 1019.52 1019.44 1019.36 1019.24 1019.12 1019.08 1019.04 1019.08 1019.08 1019.12 1019.04 1018.92 1018.84 1018.72 1018.60 1018.60 1018.76 1018.52 1018.36 1018.56 1018.36 1018.16 1017.68 1017.28 1016.72 1016.44 1016.16 1015.92 1015.80 1015.40 1015.08 1014.84 1014.64 1014.00 1013.64 1013.20 1012.84 1013.24 1013.92 1014.44 1014.48 1014.48 1014.52 1014.52 1014.44 1014.36 1014.28 1014.12 1014.00 1013.92 1013.84 1013.84 1013.84 1013.80 1013.92 1014.00 1014.16
1018.48 1018.56 1018.44 1018.68 1019.00 1019.48 1019.92 1019.92 1020.08 1020.16 1020.04 1019.92 1019.84 1019.80 1019.72 1019.68 1019.64 1019.52 1019.48 1019.48 1019.48 1019.48 1019.36 1019.28 1019.24 1019.08 1018.96 1018.84 1018.72 1018.56 1018.44 1018.40 1018.40 1018.40 1018.28 1018.28 1018.36 1018.24 1018.04 1017.76 1017.36 1016.96 1016.24 1016.24 1016.12 1016.00 1015.36 1015.32 1015.00 1015.00 1014.76 1014.40 1013.44 1012.96 1013.56 1014.08 1014.20 1014.36 1014.52 1014.60 1014.68 1014.68 1014.56 1014.36 1014.20 1014.04 1013.88 1013.76 1013.68 1013.72 1013.80 1013.80 1013.92 1014.12
1018.12 1018.16 1019.24 1019.68 1019.76 1020.00 1020.12 1020.24 1020.28 1020.36 1020.48 1020.52 1020.56 1020.48 1020.40 1020.24 1020.00 1019.88 1020.04 1020.00 1019.92 1019.76 1019.64 1019.36 1019.24 1019.04 1018.96 1018.84 1018.68 1018.52 1018.36 1018.20 1018.12 1018.04 1018.00 1017.96 1017.92 1017.80 1017.64 1017.44 1017.24 1016.88 1016.32 1016.08 1016.00 1016.08 1015.76 1015.76 1015.72 1015.48 1015.64 1015.80 1015.20 1013.68 1013.84 1013.96 1014.08 1014.20 1014.32 1014.48 1014.68 1014.76 1014.72 1014.44 1014.16 1014.04 1014.04 1013.96 1013.80 1013.76 1013.92 1013.96 1014.00 1014.16
1018.56 1018.52 1019.64 1019.96 1020.00 1020.00 1020.20 1020.28 1020.40 1020.48 1020.56 1020.64 1020.68 1020.60 1020.56 1020.36 1020.12 1020.24 1020.16 1020.00 1020.00 1019.84 1019.64 1019.40 1019.16 1018.92 1018.76 1018.64 1018.52 1018.36 1018.20 1018.08 1017.88 1017.72 1017.60 1017.56 1017.52 1017.48 1017.36 1017.24 1017.00 1016.60 1016.20 1016.08 1016.04 1016.00 1015.88 1015.72 1015.84 1015.76 1015.48 1015.32 1014.92 1014.64 1014.28 1014.40 1014.40 1014.48 1014.48 1014.56 1014.68 1014.80 1014.76 1014.52 1014.36 1014.32 1014.36 1014.40 1014.28 1014.08 1014.12 1014.20 1014.20 1014.32
1018.88 1018.64 1019.48 1019.96 1020.04 1019.96 1020.20 1020.36 1020.40 1020.48 1020.56 1020.64 1020.76 1020.68 1020.52 1020.36 1020.28 1020.24 1020.20 1020.12 1020.00 1019.76 1019.48 1019.24 1019.00 1018.80 1018.64 1018.48 1018.40 1018.24 1018.08 1017.92 1017.72 1017.52 1017.36 1017.24 1017.20 1017.08 1016.92 1016.84 1016.76 1016.64 1016.36 1016.20 1016.12 1016.20 1016.32 1016.16 1015.92 1015.88 1015.72 1015.60 1015.32 1015.36 1015.24 1014.72 1014.40 1014.48 1014.60 1014.64 1014.88 1015.08 1015.04 1014.92 1014.72 1014.76 1014.84 1014.84 1014.84 1014.72 1014.56 1014.48 1014.56 1014.68
1019.16 1018.88 1019.36 1020.08 1020.20 1020.16 1020.20 1020.28 1020.36 1020.36 1020.40 1020.52 1020.56 1020.40 1020.32 1020.28 1020.20 1020.24 1020.24 1020.04 1019.80 1019.56 1019.32 1019.12 1019.00 1018.80 1018.68 1018.52 1018.32 1018.08 1017.84 1017.68 1017.52 1017.36 1017.20 1017.00 1016.88 1016.72 1016.52 1016.36 1016.24 1016.16 1016.08 1016.16 1016.16 1016.00 1016.08 1016.08 1015.96 1016.12 1016.20 1016.08 1016.00 1015.64 1015.44 1015.24 1014.68 1014.56 1014.72 1014.84 1015.08 1015.24 1015.28 1015.28 1015.24 1015.24 1015.28 1015.32 1015.24 1015.20 1015.08 1014.96 1015.00 1015.08
1019.40 1019.24 1019.40 1019.72 1019.84 1019.76 1019.72 1019.68 1019.84 1020.00 1020.08 1020.20 1020.12 1020.04 1020.00 1019.92 1019.88 1020.08 1019.92 1019.72 1019.44 1019.20 1019.04 1018.96 1018.76 1018.64 1018.44 1018.32 1018.08 1017.88 1017.64 1017.44 1017.32 1017.16 1017.00 1016.84 1016.68 1016.48 1016.24 1016.04 1015.88 1015.84 1015.84 1015.88 1015.92 1015.92 1015.76 1015.72 1015.72 1015.80 1015.92 1015.96 1016.00 1015.88 1015.60 1014.92 1014.76 1014.72 1014.84 1015.00 1015.12 1015.16 1015.28 1015.44 1015.56 1015.56 1015.56 1015.52 1015.44 1015.48 1015.52 1015.48 1015.36 1015.36
1019.44 1019.56 1019.52 1019.52 1019.56 1019.64 1019.72 1019.80 1019.84 1019.96 1019.92 1019.72 1019.72 1019.68 1019.60 1019.60 1019.80 1019.64 1019.52 1019.24 1019.00 1018.84 1018.72 1018.56 1018.36 1018.20 1018.08 1017.92 1017.72 1017.56 1017.40 1017.24 1017.12 1017.00 1016.80 1016.64 1016.48 1016.28 1016.08 1015.92 1015.76 1015.64 1015.56 1015.52 1015.56 1015.52 1015.48 1015.44 1015.48 1015.52 1015.56 1015.56 1015.60 1015.36 1015.36 1014.96 1014.72 1014.64 1014.72 1014.92 1015.28 1015.36 1015.44 1015.68 1015.76 1015.76 1015.76 1015.72 1015.72 1015.68 1015.76 1015.72 1015.64 1015.52
1019.56 1019.48 1019.56 1019.56 1019.56 1019.48 1019.48 1019.64 1019.72 1019.60 1019.40 1019.28 1019.36 1019.40 1019.40 1019.48 1019.40 1019.28 1019.08 1018.84 1018.60 1018.48 1018.28 1018.20 1018.12 1017.92 1017.76 1017.64 1017.44 1017.32 1017.24 1017.20 1017.08 1016.92 1016.68 1016.52 1016.28 1016.12 1015.88 1015.72 1015.52 1015.36 1015.28 1015.20 1015.16 1015.12 1015.04 1015.00 1015.04 1015.12 1015.12 1015.08 1015.12 1015.08 1014.92 1014.88 1014.68 1014.52 1014.68 1014.96 1015.40 1015.56 1015.64 1015.80 1015.92 1015.96 1015.96 1016.00 1015.96 1015.92 1015.88 1015.80 1015.76 1015.68
1019.80 1019.72 1019.64 1019.56 1019.40 1019.24 1019.16 1019.28 1019.40 1019.52 1019.40 1019.40 1019.28 1019.20 1019.08 1018.96 1018.84 1018.72 1018.60 1018.48 1018.32 1018.20 1018.08 1017.96 1017.80 1017.64 1017.44 1017.28 1017.20 1017.16 1017.08 1016.96 1016.80 1016.68 1016.52 1016.36 1016.08 1016.00 1015.76 1015.64 1015.44 1015.32 1015.04 1014.88 1014.80 1014.76 1014.76 1014.72 1014.72 1014.72 1014.80 1014.68 1014.68 1014.68 1014.60 1014.64 1014.60 1014.56 1014.80 1015.04 1015.12 1015.16 1015.44 1015.72 1015.96 1016.04 1016.04 1016.12 1016.12 1016.12 1016.08 1015.96 1015.88 1015.80
1020.00 1019.80 1019.48 1019.28 1019.04 1018.84 1018.80 1018.88 1019.00 1019.00 1019.04 1019.08 1019.12 1019.08 1019.04 1018.92 1018.80 1018.64 1018.48 1018.32 1018.16 1017.96 1017.76 1017.60 1017.44 1017.32 1017.24 1017.16 1017.04 1016.88 1016.76 1016.64 1016.52 1016.40 1016.24 1016.08 1015.92 1015.72 1015.56 1015.48 1015.32 1015.20 1015.00 1014.80 1014.68 1014.56 1014.52 1014.52 1014.52 1014.52 1014.52 1014.48 1014.56 1014.40 1014.36 1014.36 1014.36 1014.40 1014.48 1014.92 1015.04 1015.08 1015.16 1015.48 1015.84 1015.96 1015.88 1016.00 1016.32 1016.44 1016.32 1016.16 1016.08 1015.96
1020.08 1019.84 1019.64 1019.32 1018.80 1018.72 1018.88 1019.04 1019.12 1019.24 1019.24 1019.24 1019.24 1019.20 1019.04 1018.92 1018.80 1018.64 1018.44 1018.32 1018.16 1017.96 1017.84 1017.72 1017.64 1017.52 1017.40 1017.24 1017.08 1016.96 1016.76 1016.52 1016.28 1016.08 1015.96 1015.76 1015.68 1015.44 1015.28 1015.16 1015.04 1015.04 1015.00 1014.84 1014.64 1014.52 1014.40 1014.28 1014.28 1014.28 1014.24 1014.16 1014.16 1014.24 1014.40 1014.44 1014.16 1014.12 1014.32 1014.72 1014.84 1015.04 1015.16 1015.28 1015.64 1015.88 1015.88 1016.08 1016.32 1016.44 1016.48 1016.28 1016.16 1016.08
1020.48 1020.16 1019.84 1019.08 1018.92 1019.12 1019.28 1019.36 1019.44 1019.44 1019.48 1019.40 1019.24 1019.12 1018.96 1018.84 1018.72 1018.56 1018.48 1018.32 1018.12 1017.96 1017.92 1017.76 1017.68 1017.56 1017.40 1017.28 1017.08 1016.88 1016.68 1016.40 1016.20 1015.96 1015.84 1015.60 1015.40 1015.40 1015.28 1015.16 1014.96 1014.76 1014.72 1014.60 1014.48 1014.36 1014.24 1014.16 1014.16 1014.12 1014.08 1014.04 1013.88 1013.80 1013.88 1014.00 1013.88 1013.88 1014.04 1014.40 1014.56 1014.88 1015.08 1015.24 1015.56 1015.72 1015.88 1016.04 1016.20 1016.48 1016.52 1016.44 1016.28 1016.20
1020.16 1019.76 1019.12 1019.16 1019.28 1019.44 1019.52 1019.56 1019.52 1019.44 1019.44 1019.40 1019.24 1019.12 1019.04 1018.92 1018.72 1018.56 1018.40 1018.16 1018.00 1017.92 1017.84 1017.68 1017.56 1017.40 1017.28 1017.08 1016.88 1016.72 1016.48 1016.32 1016.04 1015.84 1015.60 1015.44 1015.28 1015.12 1015.00 1014.96 1014.68 1014.60 1014.52 1014.40 1014.24 1014.08 1014.08 1014.12 1014.20 1014.24 1014.16 1014.00 1013.84 1013.36 1013.20 1013.24 1013.48 1013.48 1013.80 1014.00 1014.20 1014.56 1014.96 1015.16 1015.40 1015.68 1015.84 1016.04 1016.16 1016.40 1016.48 1016.44 1016.40 1016.32
1020.20 1019.52 1019.48 1019.60 1019.68 1019.64 1019.72 1019.64 1019.56 1019.52 1019.40 1019.28 1019.16 1019.00 1018.96 1018.80 1018.64 1018.52 1018.32 1018.04 1017.88 1017.68 1017.56 1017.40 1017.24 1017.08 1016.92 1016.72 1016.52 1016.32 1016.08 1015.92 1015.76 1015.56 1015.36 1015.24 1015.12 1014.88 1014.72 1014.48 1014.32 1014.20 1014.16 1014.04 1013.88 1013.72 1013.80 1013.84 1013.92 1014.08 1014.12 1013.88 1013.84 1013.56 1012.96 1012.52 1012.76 1013.08 1013.48 1013.76 1013.96 1014.28 1014.68 1014.96 1015.28 1015.52 1015.76 1016.08 1016.20 1016.36 1016.56 1016.68 1016.68 1016.56
1019.60 1019.40 1019.68 1019.80 1019.88 1019.88 1019.88 1019.76 1019.68 1019.52 1019.36 1019.28 1019.20 1019.12 1018.96 1018.76 1018.48 1018.20 1017.88 1017.68 1017.56 1017.40 1017.20 1017.04 1016.84 1016.68 1016.48 1016.28 1016.04 1015.84 1015.64 1015.52 1015.32 1015.12 1014.96 1014.80 1014.64 1014.52 1014.40 1014.12 1014.00 1013.84 1013.80 1013.56 1013.48 1013.40 1013.40 1013.44 1013.44 1013.56 1013.60 1013.56 1013.48 1013.28 1012.68 1012.36 1012.24 1012.32 1012.52 1013.16 1013.72 1013.88 1014.32 1014.76 1015.12 1015.52 1015.72 1015.92 1016.16 1016.28 1016.44 1016.48 1016.60 1016.76
1019.72 1019.64 1019.84 1019.92 1019.96 1019.88 1019.76 1019.60 1019.48 1019.40 1019.32 1019.28 1019.24 1019.08 1018.84 1018.52 1018.20 1017.88 1017.60 1017.44 1017.28 1017.04 1016.84 1016.64 1016.40 1016.24 1016.00 1015.84 1015.68 1015.40 1015.16 1014.96 1014.80 1014.60 1014.40 1014.32 1014.24 1014.04 1013.84 1013.72 1013.52 1013.44 1013.28 1013.08 1013.00 1012.96 1012.92 1013.00 1013.04 1013.04 1013.16 1013.20 1013.16 1012.96 1012.80 1012.20 1012.20 1012.08 1012.16 1012.52 1013.12 1013.60 1013.76 1014.28 1014.88 1015.24 1015.64 1015.84 1016.00 1016.12 1016.28 1016.48 1016.72 1016.92
1019.64 1020.04 1020.00 1020.04 1019.92 1019.72 1019.64 1019.56 1019.52 1019.40 1019.32 1019.28 1019.20 1019.00 1018.72 1018.36 1018.04 1017.76 1017.48 1017.24 1016.96 1016.72 1016.44 1016.28 1016.08 1015.88 1015.64 1015.44 1015.28 1015.04 1014.80 1014.56 1014.36 1014.12 1013.92 1013.76 1013.68 1013.56 1013.32 1013.16 1013.04 1012.84 1012.80 1012.64 1012.52 1012.44 1012.48 1012.48 1012.48 1012.56 1012.60 1012.72 1012.68 1012.44 1012.28 1012.20 1011.96 1011.68 1011.68 1011.84 1012.32 1013.20 1013.52 1013.72 1014.44 1015.00 1015.36 1015.72 1016.24 1016.56 1016.80 1016.88 1017.00 1017.16
1020.00 1020.08 1020.08 1020.00 1019.84 1019.72 1019.64 1019.52 1019.40 1019.32 1019.36 1019.24 1019.08 1018.88 1018.64 1018.36 1018.00 1017.68 1017.32 1016.96 1016.64 1016.36 1016.20 1015.96 1015.68 1015.44 1015.24 1015.04 1014.80 1014.56 1014.32 1014.08 1013.88 1013.68 1013.48 1013.32 1013.16 1013.08 1012.96 1012.80 1012.68 1012.48 1012.40 1012.28 1012.16 1012.00 1011.96 1011.92 1011.92 1011.92 1011.96 1011.92 1011.88 1011.92 1012.00 1012.12 1012.24 1012.20 1012.04 1012.00 1011.96 1012.20 1013.04 1013.56 1014.16 1014.68 1015.24 1015.64 1015.96 1016.36 1016.92 1017.04 1017.36 1017.68
1020.08 1020.16 1020.00 1019.92 1019.76 1019.68 1019.60 1019.44 1019.32 1019.24 1019.24 1019.12 1019.00 1018.76 1018.56 1018.24 1017.92 1017.52 1017.16 1016.80 1016.48 1016.20 1015.96 1015.60 1015.32 1015.08 1014.84 1014.56 1014.36 1014.20 1013.88 1013.56 1013.32 1013.12 1013.00 1012.84 1012.68 1012.52 1012.40 1012.36 1012.28 1012.12 1012.04 1011.84 1011.64 1011.56 1011.44 1011.20 1011.20 1011.28 1011.40 1011.52 1011.68 1011.92 1012.04 1012.08 1012.20 1012.40 1012.60 1012.56 1012.68 1012.64 1012.56 1012.88 1013.56 1014.08 1014.68 1015.36 1015.68 1016.08 1016.48 1016.88 1017.28 1017.64
1020.12 1020.12 1020.00 1019.84 1019.80 1019.68 1019.60 1019.52 1019.40 1019.28 1019.16 1019.08 1019.00 1018.76 1018.44 1018.08 1017.72 1017.28 1016.88 1016.48 1016.20 1015.88 1015.60 1015.28 1014.92 1014.64 1014.36 1014.12 1013.88 1013.68 1013.44 1013.08 1012.80 1012.56 1012.40 1012.28 1012.08 1011.92 1011.84 1011.84 1011.76 1011.56 1011.56 1011.36 1011.16 1010.92 1010.72 1010.80 1010.88 1010.96 1011.08 1011.32 1011.64 1011.84 1011.88 1011.92 1012.28 1012.76 1012.92 1013.08 1013.08 1013.16 1013.40 1013.48 1013.64 1013.92 1014.24 1014.60 1015.20 1016.00 1016.68 1017.20 1017.28 1017.52
1020.12 1020.12 1020.12 1020.00 1019.96 1019.80 1019.68 1019.64 1019.52 1019.40 1019.32 1019.20 1018.96 1018.68 1018.28 1017.84 1017.44 1017.04 1016.64 1016.24 1015.88 1015.56 1015.20 1014.84 1014.52 1014.20 1013.88 1013.60 1013.36 1013.16 1012.92 1012.60 1012.32 1012.08 1011.92 1011.80 1011.72 1011.60 1011.44 1011.28 1011.16 1011.04 1010.92 1010.72 1010.56 1010.56 1010.52 1010.52 1010.56 1010.64 1010.84 1011.12 1011.24 1011.28 1011.60 1011.84 1012.28 1012.76 1013.08 1013.24 1013.52 1013.72 1013.92 1014.00 1014.12 1014.44 1014.84 1015.04 1015.04 1015.04 1015.16 1015.32 1015.80 1016.76
1020.20 1020.16 1020.12 1020.08 1020.00 1019.88 1019.76 1019.68 1019.56 1019.48 1019.40 1019.16 1018.88 1018.52 1018.16 1017.76 1017.36 1016.88 1016.48 1016.04 1015.64 1015.24 1014.84 1014.52 1014.12 1013.80 1013.48 1013.16 1012.88 1012.60 1012.32 1012.04 1011.80 1011.60 1011.36 1011.20 1011.12 1011.04 1010.92 1010.72 1010.60 1010.52 1010.48 1010.44 1010.40 1010.32 1010.28 1010.24 1010.24 1010.32 1010.64 1010.88 1010.92 1011.12 1011.32 1011.80 1012.40 1012.68 1012.96 1013.40 1013.72 1013.92 1014.32 1014.60 1014.80 1015.00 1015.24 1015.40 1015.44 1015.48 1015.60 1015.76 1015.84 1015.80
1020.20 1020.24 1020.20 1020.12 1020.00 1019.92 1019.84 1019.72 1019.56 1019.48 1019.32 1019.08 1018.72 1018.36 1018.00 1017.60 1017.24 1016.72 1016.28 1015.80 1015.40 1014.96 1014.56 1014.16 1013.80 1013.44 1013.08 1012.76 1012.52 1012.20 1011.84 1011.56 1011.32 1011.08 1010.88 1010.72 1010.52 1010.36 1010.24 1010.16 1010.12 1010.08 1010.08 1010.08 1010.16 1010.08 1010.00 1009.96 1010.08 1010.20 1010.24 1010.44 1010.64 1010.80 1011.16 1011.56 1012.16 1012.76 1013.08 1013.36 1013.80 1014.08 1014.36 1014.56 1014.88 1015.36 1015.68 1015.96 1015.92 1015.80 1015.96 1016.08 1016.28 1016.56
Wind_Speed
3 1 1 0 3 3 0 2 2 2 2 2 2 2 1 2 3 4 6 6 5 8 8 3 3 6 5 5 6 7 6 3 1 2 4 3 3 6 9 10 11 11 10 10 11 11 12 11 11 11 12 12 13 12 12 10 11 15 17 18 18 18 19 18 17 18 19 21 20 18 18 17 16 16
2 1 3 3 3 2 1 2 1 0 1 2 3 3 2 1 2 2 3 5 3 6 7 7 7 7 6 5 3 3 3 4 8 6 5 5 4 4 8 12 13 13 12 12 12 12 12 12 12 12 12 12 12 13 12 12 12 13 15 17 18 19 19 18 18 18 16 18 19 19 19 18 17 16
3 2 0 1 1 1 0 0 2 2 2 1 3 3 4 3 1 1 1 2 2 4 7 6 8 8 8 6 5 5 5 7 8 6 5 4 9 7 6 10 10 9 11 12 13 13 13 13 12 12 12 12 13 13 13 12 12 12 14 16 18 19 19 19 19 21 19 18 18 19 19 19 19 17
3 2 1 0 2 1 2 3 3 2 2 1 2 3 3 3 2 1 1 3 6 3 4 6 8 9 7 7 7 6 6 6 9 5 6 7 10 4 4 9 12 14 15 15 16 14 12 12 12 12 12 13 13 13 13 13 12 13 13 14 16 18 19 19 20 22 23 22 19 19 19 20 19 18
2 3 3 5 2 0 2 3 2 3 2 3 3 3 2 2 2 2 2 3 5 3 3 5 6 7 7 7 5 7 5 5 4 6 5 7 7 7 7 5 9 12 13 14 14 14 13 14 13 13 12 13 13 13 13 13 13 13 13 14 16 17 19 20 21 22 23 22 23 20 17 18 19 20
2 2 2 2 5 3 1 1 4 2 1 1 3 3 3 1 1 0 1 3 3 6 3 4 5 6 7 7 4 5 5 5 5 6 6 6 6 7 7 6 7 10 12 15 15 15 14 13 13 13 14 14 14 14 14 14 13 12 12 13 14 16 18 20 20 20 21 18 18 18 20 21 22 21
5 3 3 2 3 2 2 2 3 2 3 2 3 3 2 2 2 3 3 3 4 6 6 4 5 5 4 3 4 6 6 6 6 7 6 6 7 7 7 8 8 12 15 12 14 16 15 14 14 15 15 14 14 14 14 14 14 13 13 13 14 15 17 18 20 20 21 19 21 23 20 18 16 19
6 5 4 3 3 4 3 3 2 2 2 3 2 2 3 2 3 3 2 3 4 5 6 3 4 3 4 4 5 6 6 5 5 5 6 6 7 7 8 9 9 11 15 17 16 15 16 17 17 15 14 13 13 13 13 13 14 14 14 13 14 15 16 17 18 20 20 21 21 17 19 20 24 23
4 4 3 2 3 4 3 2 3 2 2 3 3 3 3 3 3 4 4 5 5 6 7 7 5 5 4 4 5 4 6 5 5 4 5 5 6 6 6 7 9 12 15 12 12 12 13 12 12 13 13 14 15 15 15 15 14 14 14 13 14 14 14 15 17 19 20 21 20 21 20 21 25 23
2 1 2 3 1 1 3 3 0 2 2 2 3 3 4 4 4 4 4 4 5 5 6 5 6 4 5 4 4 5 6 7 7 6 6 5 5 6 7 9 8 7 7 4 5 8 11 15 18 17 15 15 15 14 15 15 15 15 14 14 13 13 14 15 16 17 18 19 19 19 21 22 24 22
4 4 2 1 2 1 0 0 1 0 2 1 3 3 4 4 4 5 5 5 6 6 7 6 6 7 6 5 5 4 5 5 5 5 6 7 7 7 7 7 5 4 6 8 11 11 11 13 13 15 16 16 16 16 15 15 15 15 15 14 13 14 15 15 15 16 17 17 19 19 18 19 22 22
3 3 2 1 2 2 1 3 5 5 3 3 3 4 4 4 4 4 4 4 5 5 6 6 7 5 6 5 6 6 6 5 5 7 4 5 5 7 7 7 9 8 10 11 9 8 12 12 14 16 16 17 16 17 14 14 14 15 14 13 13 13 13 13 13 14 15 16 17 18 18 18 19 22
2 2 1 2 1 6 7 8 7 6 4 1 2 3 3 4 4 4 4 5 6 6 6 7 6 7 7 6 6 6 4 4 4 3 6 8 8 8 8 8 8 8 9 8 8 9 5 8 10 8 8 10 14 13 14 10 14 14 12 12 12 11 11 11 12 12 13 14 15 16 16 17 18 19
4 2 3 3 11 10 9 8 7 8 6 3 1 1 1 2 3 3 3 4 4 5 6 6 6 7 8 7 7 6 5 6 6 7 5 6 6 5 7 7 6 8 8 5 8 8 8 7 5 8 9 9 9 9 7 8 11 14 15 13 11 11 12 11 12 12 12 12 13 14 15 16 17 18
4 4 4 5 7 7 6 4 7 6 7 7 7 7 6 5 2 1 3 3 3 5 6 6 6 7 7 7 6 6 7 6 8 8 8 8 7 5 5 6 6 6 8 7 8 8 7 4 5 4 3 2 3 6 6 11 12 10 10 12 11 10 10 11 11 12 11 12 12 13 14 15 17 18
5 5 5 4 5 4 5 3 4 7 10 10 10 10 10 10 9 8 5 5 4 4 5 6 6 6 7 7 7 7 7 7 9 9 8 7 7 8 8 7 6 4 9 9 8 10 8 10 11 8 6 4 2 2 8 11 12 12 12 13 13 12 11 11 11 11 10 11 11 11 12 14 16 17
2 3 2 1 5 6 11 7 4 6 7 10 13 12 9 9 10 11 12 11 9 5 6 7 8 6 6 6 5 4 8 8 7 6 7 7 8 7 8 8 9 11 10 9 6 7 8 8 8 8 7 8 2 2 4 9 11 10 12 11 11 11 11 11 10 9 9 9 9 10 11 12 14 16
2 2 4 6 4 3 6 5 4 4 6 7 7 5 4 5 9 12 14 15 15 13 10 8 9 6 6 9 7 7 5 4 5 6 6 6 8 8 9 10 11 10 9 9 7 9 8 7 10 10 8 7 4 3 7 9 7 6 7 7 8 8 7 7 8 7 7 7 7 9 10 12 13 14
3 7 7 4 2 1 1 2 2 3 1 0 1 2 3 4 4 3 3 6 8 9 9 9 10 10 8 8 9 6 3 4 4 4 5 6 7 9 10 11 10 10 7 8 5 10 6 4 7 8 7 6 7 3 3 4 7 9 9 8 7 6 5 4 4 4 4 5 6 8 9 11 12 13
4 1 2 4 3 3 4 4 7 4 2 1 0 2 3 4 4 4 5 9 11 8 7 8 9 10 10 10 7 8 9 7 6 7 6 5 6 8 9 10 8 10 7 7 7 6 5 4 8 8 7 5 7 2 4 5 6 5 5 5 6 5 4 2 0 2 3 4 5 7 9 10 11 12
4 2 4 4 4 4 1 7 8 6 5 1 2 3 4 5 4 6 5 9 12 11 11 12 13 13 15 16 18 18 18 12 6 5 8 9 7 10 11 10 9 10 7 6 5 5 7 3 4 8 6 6 6 4 5 3 4 6 6 6 5 4 4 4 4 3 4 4 5 6 8 9 9 10
3 3 11 8 4 4 2 7 6 2 1 3 3 3 4 5 5 5 4 5 5 9 10 10 10 9 11 13 15 15 15 16 11 7 11 6 5 9 9 12 10 10 7 6 5 8 7 6 6 7 7 7 4 5 4 5 6 7 7 8 6 5 6 8 8 8 7 6 6 7 7 7 6 5
6 9 10 1 9 9 10 12 11 10 6 4 4 3 3 5 5 5 5 5 6 5 5 5 6 7 9 8 7 7 12 12 11 8 9 6 7 9 9 9 9 10 9 4 5 9 7 6 5 5 5 6 5 3 6 4 4 3 3 3 4 5 6 9 11 11 11 8 6 6 4 4 6 3
2 0 8 9 11 13 12 10 10 9 8 4 3 3 4 5 7 4 5 6 8 9 9 9 8 9 8 9 9 9 10 10 9 8 7 7 8 9 8 8 8 10 6 2 5 4 2 1 5 3 2 3 4 6 4 3 4 3 2 2 1 2 3 7 8 12 13 10 6 4 4 6 5 4
4 3 6 5 7 10 9 8 7 5 4 1 2 2 4 5 6 8 8 8 10 9 9 9 9 8 7 7 7 8 8 9 8 7 7 7 7 8 9 9 9 10 7 4 4 4 4 2 5 5 8 4 4 6 2 1 3 3 4 4 3 4 4 5 6 7 8 10 9 7 6 5 5 5
3 3 7 4 6 8 7 5 3 1 3 5 4 4 8 10 10 7 6 6 6 7 7 7 7 7 6 7 7 7 7 7 7 7 6 5 7 8 9 9 10 10 8 5 9 5 5 3 2 4 5 5 6 4 7 6 0 2 3 3 5 5 5 4 5 6 6 5 5 5 7 10 10 9
4 5 5 6 5 6 6 4 4 5 7 5 6 10 9 8 10 9 6 6 7 7 7 7 7 7 7 7 7 7 7 6 6 7 6 7 8 8 9 9 8 9 7 5 8 9 6 5 2 5 6 5 8 7 6 5 3 1 1 3 5 4 3 4 4 5 4 4 4 8 9 11 12 11
4 3 3 2 3 2 4 6 8 8 7 6 9 11 12 13 11 6 6 6 7 6 6 7 7 7 7 7 8 7 7 7 7 8 7 8 8 9 8 8 8 9 9 9 8 9 9 9 7 5 6 7 8 8 9 6 5 1 1 2 3 4 4 4 4 3 3 2 2 3 3 4 5 8
3 6 8 10 9 7 8 10 10 8 10 14 13 13 13 11 5 6 6 6 6 7 6 6 7 7 6 7 7 7 7 7 7 7 8 8 8 9 10 10 8 7 6 6 7 8 8 8 8 7 8 9 10 9 8 8 6 3 4 3 1 3 4 3 2 2 1 1 2 2 1 1 3 4
13 11 9 9 10 11 10 7 6 7 7 6 7 9 10 6 6 6 7 7 6 6 6 6 6 7 6 7 8 8 8 7 8 8 8 8 8 8 8 8 9 9 9 8 8 8 8 8 8 8 8 8 8 9 8 8 7 5 2 4 4 2 1 3 1 1 1 0 1 2 1 1 2 3
4 5 5 7 10 10 12 10 9 9 8 6 7 5 4 3 4 4 4 6 7 7 7 7 8 7 7 6 5 6 6 7 8 7 8 8 8 7 8 8 8 7 7 6 7 8 8 8 7 7 9 9 8 9 8 7 8 7 3 5 6 5 3 5 1 2 1 1 0 1 2 2 2 2
4 5 6 8 8 7 3 2 0 0 1 3 4 5 5 5 4 6 8 8 6 7 7 7 6 6 5 6 6 6 6 6 6 6 7 7 8 7 7 7 7 6 6 5 5 4 4 4 5 6 6 7 8 7 7 7 8 7 5 6 4 4 6 6 5 3 2 3 2 0 0 1 1 2
5 5 5 6 4 4 5 6 5 4 3 3 4 5 6 5 6 6 6 6 7 7 7 7 7 7 7 7 7 8 8 8 7 6 7 7 7 7 7 8 7 6 6 6 6 7 7 7 5 7 8 9 9 8 7 8 8 6 5 6 5 5 5 5 5 5 3 4 3 2 2 2 1 2
4 5 6 3 4 4 5 5 4 4 3 4 5 5 5 5 6 6 6 7 7 6 7 7 7 8 7 8 8 8 9 9 8 8 8 8 6 7 7 8 7 6 7 8 8 8 7 7 6 7 7 7 8 9 9 9 10 7 5 6 6 6 5 5 5 5 4 4 5 5 3 3 1 2
3 6 3 5 5 4 3 4 5 4 5 4 5 5 5 6 7 7 7 6 5 5 6 7 7 8 8 9 8 9 9 9 9 8 8 8 8 8 8 8 9 8 8 9 8 8 7 7 7 7 8 8 8 9 10 11 9 9 5 6 7 7 7 6 7 6 5 4 3 5 4 2 2 2
5 3 4 5 5 5 5 4 4 5 5 6 5 6 6 6 6 7 7 7 7 7 7 8 8 8 8 9 9 9 9 9 9 9 9 8 9 9 9 10 10 9 9 9 9 8 7 7 7 8 8 7 7 9 9 12 14 8 7 5 6 7 7 7 7 6 6 5 3 5 5 5 4 3
3 4 4 4 4 4 4 4 5 5 6 5 6 6 7 7 7 7 8 7 8 8 8 8 8 9 9 9 10 10 10 10 10 9 9 9 9 9 9 10 10 10 10 10 9 8 7 8 7 8 8 8 8 9 8 0 11 14 11 9 7 8 9 8 8 7 6 6 5 5 4 6 5 5
3 4 4 3 3 5 4 5 4 4 4 5 6 7 7 8 8 8 8 8 8 8 9 9 9 9 9 9 9 9 9 9 9 10 9 9 9 10 10 10 9 9 9 9 9 9 8 8 8 8 8 9 8 8 8 2 1 4 10 10 9 8 9 10 9 8 7 6 5 4 4 6 6 6
4 4 3 4 4 5 4 4 5 5 5 5 7 8 8 8 8 8 8 8 9 9 9 8 8 9 9 9 9 10 9 9 9 9 9 9 9 10 10 9 9 9 9 9 8 8 8 8 8 8 8 9 10 8 3 4 7 4 8 17 11 10 9 10 9 8 9 8 6 6 6 6 10 14
3 3 3 4 5 5 4 5 5 4 4 5 7 8 8 9 9 9 9 9 9 8 9 9 10 10 9 9 9 9 10 11 11 10 10 9 9 10 10 9 10 9 9 9 9 8 8 8 9 9 9 9 7 6 3 2 1 2 1 8 17 17 10 9 10 10 8 7 8 10 10 8 7 5
3 3 3 4 4 4 5 5 6 4 5 6 7 8 9 9 10 9 9 10 9 10 9 10 10 10 10 9 9 9 10 10 9 9 9 9 10 10 11 11 10 10 10 9 9 8 9 9 9 11 10 7 4 4 3 3 2 1 2 2 2 5 17 15 11 10 9 9 9 10 9 9 9 7
2 3 4 5 4 5 5 6 6 5 5 6 7 8 9 9 9 13 12 12 11 10 9 9 9 9 9 9 9 9 10 10 9 9 9 9 9 9 10 9 9 9 9 9 8 9 7 6 7 7 7 5 6 7 8 6 5 4 4 3 4 7 7 8 10 9 11 13 13 10 7 6 6 8
2 3 4 3 5 5 5 5 5 5 6 7 8 8 9 9 9 10 9 10 10 9 9 9 9 9 9 9 8 9 9 9 9 9 9 9 9 9 9 8 8 9 9 9 8 7 6 6 6 7 6 6 7 7 7 6 6 6 5 6 7 7 8 13 15 14 11 9 7 6 4 8 10 9
2 3 4 4 4 5 5 5 5 5 6 8 8 8 8 9 10 10 10 10 10 10 10 9 9 9 9 9 8 8 8 8 8 8 9 8 9 9 8 8 9 9 8 8 7 7 6 6 6 6 6 7 6 7 6 7 7 7 8 7 6 9 9 8 9 11 11 11 11 12 13 13 12 11
2 2 3 4 4 4 5 5 5 6 7 8 8 9 9 9 10 10 10 10 10 10 10 10 9 9 9 8 8 8 8 9 9 9 9 8 8 8 9 9 8 8 8 7 7 7 6 6 5 5 6 6 6 6 7 9 8 7 8 9 10 9 8 8 9 8 8 6 9 16 17 18 19 20
Wind_Direction
96 91 86 168 120 87 358 45 53 6 348 326 300 289 328 347 319 333 337 332 342 332 340 340 351 33 41 14 359 4 15 80 108 243 240 265 283 246 218 197 195 200 202 206 211 211 213 217 222 226 234 243 243 236 227 219 221 219 212 209 210 209 208 211 214 217 213 210 213 207 211 211 206 204
90 44 37 349 71 79 355 84 317 324 290 279 287 304 317 339 34 352 335 310 301 319 334 349 341 354 5 356 4 1 355 321 344 333 330 331 327 184 191 194 200 199 198 201 208 210 211 212 213 216 222 232 239 243 237 223 219 216 215 213 210 210 210 209 212 216 212 214 207 199 201 203 202 202
120 113 108 323 87 113 103 220 209 213 227 310 330 343 338 340 20 345 299 305 299 350 321 330 341 339 339 353 354 344 339 332 335 330 315 293 297 282 217 213 207 205 204 211 213 214 214 212 213 214 218 220 228 236 238 235 229 223 216 212 213 213 212 211 212 217 210 212 213 205 198 198 198 197
136 137 183 116 26 51 300 251 198 187 190 224 286 324 307 311 308 325 277 264 285 312 304 328 332 331 337 341 336 331 325 332 342 332 329 332 339 306 262 213 210 210 213 216 220 224 218 215 216 216 217 219 223 228 233 234 230 226 222 216 216 217 215 212 213 217 215 211 207 211 201 197 194 190
158 189 184 162 165 121 281 298 309 249 211 190 200 229 249 271 269 250 278 286 287 296 337 335 318 319 329 320 321 312 313 317 327 333 326 322 312 306 293 291 236 234 238 237 238 232 223 217 214 215 215 218 222 227 231 234 234 229 225 220 215 214 217 218 217 216 219 215 213 210 202 199 195 190
182 96 291 198 157 175 312 347 300 307 311 294 232 185 190 223 278 278 311 296 291 291 302 302 305 302 298 290 292 296 321 322 321 308 300 290 290 292 304 291 292 269 243 243 243 239 232 220 213 213 214 216 217 221 225 230 234 233 228 225 222 218 216 218 221 222 227 221 217 213 213 207 201 194
162 170 206 235 143 132 213 236 277 283 269 301 326 0 3 316 285 285 273 271 284 293 288 273 275 259 267 278 312 309 300 293 287 283 280 282 282 281 279 281 277 278 279 254 238 240 236 223 214 213 216 216 218 220 222 225 229 229 229 227 225 221 219 218 220 222 224 219 215 215 215 213 205 205
151 184 188 199 159 161 193 234 250 262 238 230 265 339 316 311 285 252 250 234 237 248 271 270 281 296 308 296 290 284 277 274 275 270 275 272 270 262 258 263 264 255 248 259 256 241 232 224 217 214 216 221 224 223 223 225 226 229 229 229 227 226 223 221 220 222 223 224 224 214 211 205 210 210
159 160 172 201 174 167 202 193 218 243 24 355 353 325 323 300 335 354 345 333 324 318 304 299 290 284 277 272 270 272 284 279 275 280 273 273 283 291 296 299 295 297 289 266 244 231 227 229 228 225 218 218 221 222 222 222 223 225 226 227 227 228 229 229 226 224 225 225 223 218 214 213 215 210
134 159 184 188 161 149 177 222 357 26 343 10 338 338 343 334 321 313 312 302 283 273 274 287 302 299 294 299 284 283 273 268 269 267 267 266 261 266 270 265 262 261 263 244 241 237 228 220 217 217 220 221 221 223 222 222 222 222 222 222 222 224 227 228 229 229 229 229 228 224 219 217 218 211
161 173 194 196 153 158 161 197 191 69 33 26 1 349 348 332 347 340 329 319 314 308 300 293 276 276 267 258 273 274 284 288 287 286 280 268 258 250 251 266 266 259 270 272 246 237 220 219 220 222 223 220 221 224 224 225 225 224 221 219 216 219 223 227 229 231 232 232 232 230 226 221 221 220
169 157 170 163 168 171 70 68 60 64 46 19 357 345 342 334 330 326 319 316 308 303 299 293 296 290 292 292 273 269 262 265 276 275 287 302 315 319 314 312 310 304 305 302 301 242 237 240 233 231 226 226 227 225 225 225 225 226 226 220 217 219 222 226 229 231 233 233 234 233 229 223 222 222
155 156 164 172 105 96 104 99 100 105 103 53 336 330 353 343 341 337 339 329 326 317 311 306 308 304 302 297 304 307 305 293 274 294 325 308 304 292 282 278 270 267 262 262 266 279 244 224 229 231 227 235 234 235 225 225 219 222 222 220 219 216 217 222 227 232 236 238 238 236 232 228 225 226
161 190 169 124 124 133 130 134 126 118 124 148 184 258 302 319 329 340 331 324 315 309 302 298 303 304 299 306 310 311 307 309 312 306 290 279 281 296 291 290 283 273 270 278 281 282 282 273 234 196 218 232 221 224 206 217 212 210 210 210 211 209 213 215 221 227 232 235 237 236 234 229 226 225
179 183 191 152 157 143 147 147 153 159 170 188 214 229 232 233 227 282 297 293 291 288 286 290 291 291 297 300 313 320 322 333 345 339 336 322 319 302 306 306 313 326 27 351 331 321 311 304 295 307 319 287 209 236 229 223 225 210 192 202 205 208 210 215 219 223 226 234 239 239 235 229 226 225
189 195 204 169 174 169 166 181 177 199 204 204 214 222 230 242 248 232 226 247 265 266 275 282 287 298 301 309 318 315 325 345 337 327 325 321 329 333 324 308 292 303 17 352 331 316 326 340 331 317 300 299 88 239 194 206 202 202 190 190 191 195 202 209 216 220 226 229 232 238 240 237 231 228
63 28 355 142 168 201 188 194 190 186 213 221 221 225 233 243 242 246 249 246 244 252 259 267 272 273 282 294 300 313 324 322 315 332 334 349 349 337 322 317 323 320 330 332 325 308 310 323 315 307 303 301 280 83 162 178 183 186 183 183 183 189 192 196 202 214 223 229 236 237 240 242 238 233
113 128 248 254 209 159 161 188 202 222 211 202 219 227 235 242 251 251 250 252 255 252 256 263 270 275 290 283 285 290 301 341 349 337 322 335 326 321 306 306 299 299 309 306 311 298 301 307 300 295 300 306 315 151 186 178 165 160 155 156 171 178 180 180 186 192 202 218 231 238 239 240 240 237
187 217 221 236 271 290 215 197 176 206 194 79 150 182 205 220 241 245 246 238 235 247 246 244 250 256 260 266 271 286 328 324 299 297 295 296 293 294 294 293 294 296 295 286 271 271 283 279 282 285 295 300 314 78 113 129 146 152 154 156 150 138 155 163 197 206 216 223 234 238 240 241 241 237
227 237 245 233 229 236 248 143 148 162 222 230 242 270 268 272 266 259 258 267 268 255 231 222 229 238 244 252 267 278 280 288 296 294 293 294 295 295 294 287 301 290 295 287 283 282 283 282 285 290 285 300 299 116 130 129 144 137 129 129 132 132 121 134 108 290 281 267 258 255 247 244 244 243
184 200 256 246 225 228 194 149 141 143 134 186 231 265 277 274 270 265 267 265 263 264 267 271 277 278 278 278 277 280 282 272 262 280 288 283 293 283 280 278 275 272 278 282 299 305 297 280 281 294 292 284 273 258 147 154 116 95 95 85 83 79 78 62 43 11 339 307 287 269 261 251 246 244
117 271 266 236 221 223 132 139 96 65 54 226 242 259 264 269 269 273 279 282 277 278 281 289 289 283 282 284 285 281 273 273 274 257 267 271 268 266 263 272 266 271 271 282 337 310 282 318 315 311 307 305 281 258 133 114 82 84 74 68 51 48 58 49 37 25 9 354 321 295 267 255 230 227
191 209 245 311 58 68 83 78 67 44 22 353 337 319 305 286 280 283 300 307 319 329 330 322 323 310 305 300 292 287 286 273 261 252 257 259 251 260 263 269 276 270 258 264 281 272 296 308 308 324 328 304 294 312 84 111 141 135 115 81 36 20 63 52 43 28 14 4 343 313 274 182 158 148
299 55 83 80 86 82 80 79 73 62 50 25 348 339 317 302 291 338 343 318 309 304 300 292 284 279 280 282 285 284 282 278 265 258 258 256 251 258 261 262 259 262 271 277 296 293 274 315 293 323 278 286 306 322 63 79 73 80 111 121 155 247 41 35 39 32 21 13 22 60 124 142 138 133
326 36 92 71 96 86 76 87 82 59 52 28 327 298 274 269 302 328 308 309 309 294 289 284 283 278 275 271 268 266 267 269 268 260 252 251 257 261 261 262 265 269 275 263 296 312 295 325 307 324 309 295 289 314 335 48 57 51 38 13 5 21 28 31 35 29 23 18 27 64 71 63 77 103
315 333 103 105 89 96 93 90 104 230 244 236 230 258 255 273 285 287 289 293 287 280 279 282 280 280 279 277 275 278 282 287 285 279 272 262 259 262 260 257 259 264 270 305 330 323 326 315 305 306 302 316 316 336 322 317 350 70 52 36 62 22 17 18 40 37 30 20 12 25 62 75 85 98
339 340 92 115 126 123 150 167 201 234 238 243 236 238 254 268 274 279 272 267 270 276 279 281 282 285 287 285 282 276 272 267 267 272 271 266 262 257 254 256 258 261 269 267 280 285 275 269 282 291 290 301 299 301 289 291 311 41 6 52 78 68 36 36 41 38 40 40 40 49 60 71 78 79
301 330 26 10 50 70 347 324 319 299 284 274 273 278 276 271 272 269 268 262 262 265 269 268 270 268 264 268 271 274 271 268 266 268 271 274 278 280 276 263 254 252 256 259 253 256 266 272 274 262 279 280 274 278 289 281 278 189 178 55 72 71 62 52 51 60 50 35 28 36 48 80 96 93
349 346 337 351 352 334 284 260 256 260 265 262 263 262 262 267 267 256 252 259 266 272 270 271 270 270 267 267 270 268 268 271 274 275 274 269 263 265 270 277 274 265 248 239 243 246 246 244 241 238 241 249 265 268 263 274 297 275 180 142 41 52 63 61 52 70 56 16 48 45 41 90 113 114
313 313 314 304 291 278 272 268 257 238 239 239 252 266 272 268 259 251 250 254 262 270 275 274 271 269 265 262 264 269 271 271 270 272 272 270 267 264 260 256 255 257 256 253 249 247 242 239 241 241 246 242 244 259 266 282 274 291 187 157 124 55 61 89 55 70 91 44 42 64 56 49 98 123
332 307 286 260 263 265 264 260 267 288 308 297 267 256 268 278 288 288 287 291 292 288 287 281 281 281 278 278 275 268 259 261 261 256 260 262 262 257 257 258 263 261 252 247 244 243 244 246 243 238 245 246 244 247 256 257 265 265 216 158 150 173 180 129 154 136 147 100 28 59 82 82 73 84
301 297 292 281 265 262 272 277 12 289 326 332 347 323 320 305 299 303 305 301 286 275 270 272 274 273 273 274 276 278 277 271 270 264 262 259 261 255 258 263 261 259 261 260 266 263 262 262 268 264 258 257 257 259 256 255 255 254 229 172 167 142 147 152 159 167 152 108 88 41 80 149 148 113
316 307 299 283 310 14 5 2 359 353 340 329 327 315 299 305 301 295 290 294 296 297 302 303 304 301 299 293 294 291 285 281 280 269 264 262 265 264 255 253 251 249 256 256 253 259 262 267 259 258 260 259 252 248 250 256 254 243 200 174 159 155 154 148 151 165 143 121 137 149 188 225 200 129
294 280 261 279 21 5 13 353 335 323 331 304 295 290 291 286 293 296 296 290 293 294 295 293 293 290 289 285 282 279 277 277 276 276 273 275 266 265 260 262 257 252 252 259 258 256 256 254 259 264 265 263 256 245 238 241 249 241 198 179 171 163 164 143 148 156 156 165 154 154 173 200 188 129
285 293 330 11 9 14 356 328 307 310 304 298 293 301 310 304 293 289 282 280 280 283 282 281 278 278 275 275 274 271 269 268 267 268 268 272 271 266 263 261 262 258 256 258 254 251 248 248 249 256 258 258 261 256 233 229 239 237 209 190 173 161 160 159 149 155 162 174 160 150 150 146 132 139
285 300 23 1 2 347 342 319 327 309 303 298 294 290 293 293 290 288 286 279 279 275 274 271 270 270 270 269 268 267 266 265 264 263 264 259 259 259 259 257 257 258 254 254 256 254 244 241 229 235 242 243 243 256 259 221 215 225 215 196 175 156 153 147 148 150 156 163 174 156 153 151 158 130
289 29 31 5 349 333 312 318 301 301 296 308 312 308 297 295 292 283 281 279 277 273 269 270 269 268 266 266 265 262 261 260 262 258 256 256 254 254 255 255 250 249 250 250 250 249 237 235 227 229 235 238 239 249 257 315 225 217 203 185 174 163 155 150 148 159 169 159 162 157 154 142 144 122
327 25 11 337 325 311 297 288 301 303 312 313 313 307 299 291 292 289 290 289 282 279 274 270 270 268 266 265 265 264 260 256 257 256 253 253 253 251 246 248 247 242 244 246 241 239 231 231 228 226 226 238 247 247 263 251 277 265 210 179 170 168 157 146 152 156 156 154 146 154 134 127 121 119
25 6 343 331 312 305 320 322 320 316 322 324 316 311 304 299 295 293 289 283 282 278 275 273 271 270 269 268 265 266 265 262 257 255 254 249 245 249 251 249 250 244 246 247 240 234 225 226 224 226 224 229 234 238 229 237 243 262 196 178 157 152 161 156 152 149 148 140 105 79 68 84 90 96
18 353 329 319 317 317 321 317 310 319 324 315 313 309 307 301 296 295 293 286 283 280 279 277 276 274 270 266 265 263 261 257 255 256 254 252 248 247 250 252 254 254 249 244 240 233 225 226 220 222 223 226 232 208 172 163 337 343 61 162 160 156 160 156 153 151 143 137 130 125 131 126 121 122
2 327 319 305 313 320 320 319 320 323 316 318 310 306 303 302 298 292 291 290 287 286 283 280 278 274 271 268 264 263 263 260 255 251 249 249 248 246 244 244 248 245 246 244 237 231 228 227 225 219 217 223 194 111 120 178 194 106 63 81 64 157 160 156 155 157 143 145 139 138 136 138 135 135
1 324 329 329 334 333 331 326 323 322 320 322 314 308 304 301 298 294 292 289 286 281 279 278 275 274 271 267 266 263 261 260 259 254 250 251 252 250 245 243 243 242 237 239 235 234 234 220 222 218 213 183 153 187 213 199 165 139 129 74 69 74 91 110 119 124 146 153 147 138 118 106 127 139
357 346 326 341 338 327 330 331 324 333 328 319 313 308 304 304 305 303 298 293 292 289 284 283 279 277 274 272 269 263 262 261 257 256 254 248 247 247 245 238 235 235 234 240 240 240 235 229 222 208 182 169 189 189 200 170 156 142 131 119 104 90 83 87 92 95 90 73 69 90 135 152 157 164
343 335 347 342 332 333 334 331 328 333 323 318 310 308 307 307 305 303 301 297 295 293 290 286 285 282 280 278 273 268 262 260 258 257 255 251 242 240 242 241 238 236 235 236 240 238 234 228 212 182 174 192 184 189 171 148 156 156 143 125 120 112 110 102 89 81 75 74 87 90 86 82 71 75
348 353 346 331 330 338 339 327 331 321 320 316 313 312 311 307 303 301 299 298 295 295 294 290 287 285 282 278 273 271 267 263 262 260 258 256 252 245 240 238 238 233 230 225 228 232 225 214 191 176 181 192 179 174 162 157 150 143 136 132 128 124 125 124 113 106 98 83 93 101 97 94 96 102